• Processing (Info)

  • MPEC 2023-R43 : 2023 RV

    The following Minor Planet Electronic Circular may be linked-to from your own Web pages, but must not otherwise be redistributed electronically.

    A form allowing access to any MPEC is at the bottom of this page.


    Read MPEC 2023-R42


    M.P.E.C. 2023-R43                             Issued 2023 September 8, 02:16 UT
    
         The Minor Planet Electronic Circulars contain information on unusual
             minor planets, routine data on comets and natural satellites,
             and occasional editorial announcements.  They are published
        on behalf of Division F of the International Astronomical Union by the
              Minor Planet Center, Smithsonian Astrophysical Observatory,
                              Cambridge, MA 02138, U.S.A.
    			  
                 Prepared using the Tamkin Foundation Computer Network
    
                                  MPC@CFA.HARVARD.EDU
                URL https://www.minorplanetcenter.net/    ISSN 1523-6714
    
                                     2023 RV                                 
    
    
    Observations:
         K23R00V  C2023 09 03.38550420 48 25.225+01 56 43.81         21.97GVER043F52
         K23R00V  C2023 09 03.40482720 48 29.590+01 55 45.22         21.28GVER043F52
         K23R00V* C2023 09 05.25170520 55 43.220+00 24 33.10         21.57wXER043F52
         K23R00V  C2023 09 05.26317120 55 45.718+00 24 00.10         21.52wXER043F52
         K23R00V  C2023 09 05.27464920 55 48.223+00 23 27.00         21.61wXER043F52
         K23R00V  C2023 09 05.50921520 56 39.131+00 12 15.33         21.89GVER043F52
         K23R00V KC2023 09 06.37669 20 59 54.47 -00 28 25.7                oER043691
         K23R00V KC2023 09 06.38918 20 59 57.24 -00 29 00.0          21.1 RoER043691
         K23R00V  C2023 09 06.46165721 00 13.564-00 32 15.37         22.06GVER043F51
         K23R00V  C2023 09 06.46247321 00 13.744-00 32 18.13         21.17GVER043F51
         K23R00V KC2023 09 07.07606821 02 31.13 -01 00 20.8          22.0 VuER043H21
         K23R00V KC2023 09 07.08588921 02 33.22 -01 00 46.9          21.7 VuER043H21
         K23R00V KC2023 09 07.09031121 02 34.12 -01 00 59.2          21.7 VuER043H21
         K23R00V KC2023 09 07.09331221 02 34.77 -01 01 07.4          22.0 VuER043H21
    
    Observer details:
    691 Steward Observatory, Kitt Peak-Spacewatch.  Observer T. H. Bressi.  0.9-m
        f/3 reflector + CCD.
    F51 Pan-STARRS 1, Haleakala.  Observers J. Bulger, K. Chambers, T. Lowe, P.
        Minguez, A. Schultz, I. Smith.  Measurers S. Chastel, J. Fairlamb, M.
        Huber, Y. Ramanjooloo, R. Wainscoat, R. Weryk.  1.8-m Ritchey-Chretien +
        CCD.
    F52 Pan-STARRS 2, Haleakala.  Observers J. Bulger, K. Chambers, T. Dukes, T.
        Lowe, P. Minguez, A. Schultz, I. Smith.  Measurers S. Chastel, J.
        Fairlamb, M. Huber, Y. Ramanjooloo, R. Wainscoat, R. Weryk, K. Chambers,
        T. de Boer, J. Bulger, H. Gao, C.-C. Lin, T. Lowe, E. Magnier, P. Minguez,
        A. Schultz, I. Smith.  1.8-m Ritchey-Chretien + CCD.
    H21 Astronomical Research Observatory, Westfield.  Observer R. Holmes.
        Measurers T. Linder, R. Holmes, L. Horn.  0.81-m f/4.0 astrograph + CCD.
    
    Orbital elements:
    2023 RV                                                  Earth MOID = 0.2012 AU
    Epoch 2023 Sept. 13.0 TT = JDT 2460200.5                MPC                     
    M  13.22214              (2000.0)            P               Q                  
    n   0.23987972     Peri.  116.30445     +0.35851914     +0.93331626             
    a   2.5653130      Node   174.59132     -0.91342164     +0.35505907             
    e   0.5639427      Incl.   12.01153     -0.19267832     +0.05342117             
    P   4.11           H   22.95          G   0.15           U   9                  
    Residuals in seconds of arc
    230903 F52  0.1+  0.1-    230905 F52  0.1+  0.4-    230907 H21  0.1-  0.0
    230903 F52  0.1-  0.3+    230906 691  0.4-  0.3+    230907 H21  0.3+  0.4+
    230905 F52  0.1-  0.1+    230906 691  0.6+  0.5+    230907 H21  0.1-  0.1+
    230905 F52  0.2-  0.1+    230906 F51  0.2-  0.2+    230907 H21  0.2+  0.0
    230905 F52  0.1-  0.1-    230906 F51  0.1-  0.3-
    
    Ephemeris:
    2023 RV                  a,e,i = 2.57, 0.56, 12                  q = 1.1186
    Date    TT    R. A. (2000) Decl.     Delta      r    Elong.  Phase     V
    2023 08 09    18 40 03.8 +26 43 01   0.2134  1.1451   123.3    47.7    21.7
    ...
    2023 08 24    20 01 53.8 +11 54 51   0.2281  1.1965   140.7    32.4    21.5
    ...
    2023 09 01    20 38 39.0 +04 02 31   0.2559  1.2330   147.5    26.1    21.6
    ...
    2023 09 07    21 02 13.5 -00 56 33   0.2860  1.2638   150.1    23.5    21.8
    2023 09 08    21 05 50.2 -01 40 51   0.2917  1.2693   150.2    23.2    21.9
    2023 09 09    21 09 21.9 -02 23 32   0.2977  1.2747   150.4    23.0    21.9
    ...
    2023 09 15    21 28 52.2 -06 06 00   0.3375  1.3089   149.9    22.7    22.3
    ...
    2023 09 23    21 51 08.6 -09 40 14   0.4007  1.3577   147.1    23.7    22.7
    ...
    2023 10 08    22 24 52.9 -13 08 33   0.5468  1.4567   139.0    26.8    23.7
    
    A. U. Tomatic                (C) Copyright 2023 MPC           M.P.E.C. 2023-R43
    


    Read MPEC 2023-R42


    MPEC number:

    Enter an MPEC number in one of the following forms:

    • 1997-B01 (the full form)
    • J97B01 (the packed version of the full form)
    • B01 (the abbreviated form)